This demonstration page uses our WeatherBlox Daily Observations layout. Learn more.

39.29038, -76.61219

Hourly Observations for April 2, 2019

Temp ( °F °C ) Dew Point ( °F °C ) Humidity (%) Winds ( mph kmh ) Pressure ( in mb ) Visibility ( mi km ) Precip ( " mm )
12:54 am 00:54 undefined 43 6.1 24 -4.4 47 47 undefined N/A 30.36 1028 N/A 0 0
1:54 am 01:54 undefined 42 5.6 24 -4.4 49 49 undefined N/A 30.36 1028 N/A 0 0
2:54 am 02:54 undefined 41 5 23 -5 49 49 undefined N/A 30.36 1028 N/A 0 0
3:54 am 03:54 undefined 40 4.4 25 -3.9 55 55 undefined N/A 30.36 1028 N/A 0 0
4:54 am 04:54 undefined 40 4.4 28 -2.2 63 63 undefined N/A 30.36 1028 N/A 0 0
5:54 am 05:54 undefined 39 3.9 29 -1.7 67 67 undefined N/A 30.37 1028 N/A 0 0
6:54 am 06:54 undefined 40 4.4 30 -1.1 68 68 undefined N/A 30.37 1028 N/A 0 0
7:54 am 07:54 undefined 43 6.1 30 -1.1 60 60 undefined N/A 30.35 1028 N/A 0 0
8:54 am 08:54 undefined 45 7.2 27 -2.8 49 49 undefined N/A 30.36 1028 N/A 0 0
9:54 am 09:54 undefined 46 7.8 26 -3.3 46 46 undefined N/A 30.36 1028 N/A 0 0
10:54 am 10:54 undefined 48 8.9 21 -6.1 34 34 undefined N/A 30.33 1027 N/A 0 0
11:54 am 11:54 undefined 47 8.3 22 -5.6 37 37 undefined N/A 30.32 1027 N/A 0 0
12:54 pm 12:54 undefined 46 7.8 22 -5.6 38 38 undefined N/A 30.28 1025 N/A 0 0
1:54 pm 13:54 undefined 47 8.3 24 -4.4 41 41 undefined N/A 30.26 1025 N/A 0 0
2:54 pm 14:54 undefined 48 8.9 29 -1.7 48 48 undefined N/A 30.23 1024 N/A 0 0
3:54 pm 15:54 undefined 47 8.3 33 0.6 59 59 undefined N/A 30.19 1022 N/A 0 0
4:54 pm 16:54 undefined 48 8.9 32 0 54 54 undefined N/A 30.16 1021 N/A 0 0
5:54 pm 17:54 undefined 48 8.9 34 1.1 58 58 undefined N/A 30.16 1021 N/A 0 0
6:54 pm 18:54 undefined 47 8.3 37 2.8 69 69 undefined N/A 30.13 1020 N/A 0 0
7:54 pm 19:54 undefined 46 7.8 39 3.9 77 77 undefined N/A 30.13 1020 N/A 0 0
8:54 pm 20:54 undefined 46 7.8 38 3.3 73 73 undefined N/A 30.11 1020 N/A 0.01 0.254
9:54 pm 21:54 undefined 47 8.3 38 3.3 71 71 undefined N/A 30.09 1019 N/A 0 0
10:54 pm 22:54 undefined 47 8.3 36 2.2 66 66 undefined N/A 30.09 1019 N/A 0 0
11:54 pm 23:54 undefined 47 8.3 35 1.7 63 63 undefined N/A 30.08 1019 N/A 0 0

Powered by AerisWeather